TimeCDT,TemperatureF,Dew PointF,Humidity,Sea Level PressureIn,VisibilityMPH,Wind Direction,Wind SpeedMPH,Gust SpeedMPH,PrecipitationIn,Events,Conditions,WindDirDegrees,DateUTC
12:15 AM,46.6,36.0,67,30.15,10.0,NNW,8.1,-,N/A,,Overcast,330,2013-10-16 05:15:00
12:35 AM,46.4,36.0,67,30.15,10.0,NW,6.9,-,N/A,,Overcast,320,2013-10-16 05:35:00
12:55 AM,46.6,35.8,66,30.15,10.0,NW,6.9,-,N/A,,Overcast,310,2013-10-16 05:55:00
1:15 AM,46.4,36.1,67,30.15,10.0,NW,5.8,-,N/A,,Overcast,310,2013-10-16 06:15:00
1:35 AM,46.4,36.5,68,30.15,10.0,WNW,8.1,-,N/A,,Overcast,300,2013-10-16 06:35:00
1:55 AM,46.4,36.5,68,30.15,10.0,NW,6.9,-,N/A,,Overcast,310,2013-10-16 06:55:00
2:15 AM,46.4,36.1,67,30.14,10.0,NW,8.1,-,N/A,,Overcast,320,2013-10-16 07:15:00
2:35 AM,46.4,35.6,66,30.15,10.0,NW,8.1,-,N/A,,Overcast,320,2013-10-16 07:35:00
2:55 AM,46.2,35.8,67,30.14,10.0,NW,6.9,-,N/A,,Overcast,310,2013-10-16 07:55:00
3:15 AM,45.9,36.0,68,30.13,10.0,NW,8.1,-,N/A,,Overcast,310,2013-10-16 08:15:00
3:35 AM,44.8,36.0,71,30.12,10.0,NW,6.9,-,N/A,,Mostly Cloudy,320,2013-10-16 08:35:00
3:55 AM,43.9,35.6,73,30.11,10.0,NW,4.6,-,N/A,,Scattered Clouds,310,2013-10-16 08:55:00
4:15 AM,42.3,35.6,77,30.12,10.0,West,3.5,-,N/A,,Scattered Clouds,270,2013-10-16 09:15:00
4:35 AM,41.2,35.2,79,30.12,10.0,West,4.6,-,N/A,,Clear,270,2013-10-16 09:35:00
4:55 AM,40.8,35.1,80,30.12,10.0,West,3.5,-,N/A,,Clear,260,2013-10-16 09:55:00
5:15 AM,40.1,35.2,83,30.12,10.0,West,4.6,-,N/A,,Clear,260,2013-10-16 10:15:00
5:35 AM,39.7,34.9,83,30.13,10.0,WSW,4.6,-,N/A,,Clear,250,2013-10-16 10:35:00
5:55 AM,39.6,34.7,83,30.13,10.0,West,4.6,-,N/A,,Clear,260,2013-10-16 10:55:00
6:15 AM,38.8,34.2,83,30.12,10.0,Calm,Calm,-,N/A,,Clear,0,2013-10-16 11:15:00
6:35 AM,38.3,34.0,84,30.12,10.0,Calm,Calm,-,N/A,,Clear,0,2013-10-16 11:35:00
6:55 AM,38.3,34.0,84,30.13,10.0,West,3.5,-,N/A,,Clear,280,2013-10-16 11:55:00
7:15 AM,38.3,33.8,84,30.13,10.0,WNW,3.5,-,N/A,,Clear,290,2013-10-16 12:15:00
7:35 AM,38.1,33.6,84,30.12,10.0,WNW,4.6,-,N/A,,Clear,300,2013-10-16 12:35:00
7:55 AM,37.6,33.3,84,30.13,10.0,WNW,4.6,-,N/A,,Clear,290,2013-10-16 12:55:00
8:15 AM,37.9,33.4,84,30.13,10.0,West,3.5,-,N/A,,Clear,280,2013-10-16 13:15:00
8:35 AM,38.7,33.8,83,30.13,10.0,West,4.6,-,N/A,,Clear,280,2013-10-16 13:35:00
8:55 AM,40.3,34.5,80,30.13,10.0,WNW,5.8,-,N/A,,Clear,300,2013-10-16 13:55:00
9:15 AM,41.9,35.1,77,30.13,10.0,NW,6.9,-,N/A,,Clear,310,2013-10-16 14:15:00
9:35 AM,43.5,35.2,73,30.13,10.0,NW,9.2,-,N/A,,Clear,310,2013-10-16 14:35:00
9:55 AM,45.3,36.1,70,30.13,10.0,NNW,6.9,-,N/A,,Clear,330,2013-10-16 14:55:00
10:15 AM,47.1,36.7,67,30.12,10.0,NW,8.1,-,N/A,,Clear,320,2013-10-16 15:15:00
10:35 AM,48.2,36.1,63,30.12,10.0,NNW,9.2,-,N/A,,Clear,330,2013-10-16 15:35:00
10:55 AM,49.5,35.8,59,30.12,10.0,NW,10.4,-,N/A,,Clear,320,2013-10-16 15:55:00
11:15 AM,50.9,35.8,56,30.12,10.0,NW,9.2,-,N/A,,Clear,310,2013-10-16 16:15:00
11:35 AM,52.0,34.2,51,30.11,10.0,NNW,9.2,-,N/A,,Clear,330,2013-10-16 16:35:00
11:55 AM,52.5,32.7,47,30.11,10.0,NNW,11.5,-,N/A,,Clear,330,2013-10-16 16:55:00
12:15 PM,53.6,32.0,44,30.10,10.0,NW,8.1,-,N/A,,Clear,310,2013-10-16 17:15:00
12:35 PM,54.3,31.3,42,30.09,10.0,NNW,6.9,-,N/A,,Clear,330,2013-10-16 17:35:00
12:55 PM,54.7,29.1,38,30.09,10.0,NNW,8.1,-,N/A,,Clear,340,2013-10-16 17:55:00
1:15 PM,55.2,30.0,38,30.08,10.0,NW,6.9,-,N/A,,Clear,320,2013-10-16 18:15:00
1:35 PM,56.3,30.4,37,30.06,10.0,WNW,6.9,-,N/A,,Clear,300,2013-10-16 18:35:00
1:55 PM,56.5,30.4,37,30.05,10.0,West,6.9,-,N/A,,Clear,270,2013-10-16 18:55:00
2:15 PM,57.0,28.0,33,30.04,10.0,WNW,6.9,-,N/A,,Clear,300,2013-10-16 19:15:00
2:35 PM,57.4,28.2,33,30.04,10.0,West,8.1,-,N/A,,Clear,280,2013-10-16 19:35:00
2:55 PM,57.9,27.7,32,30.03,10.0,West,6.9,-,N/A,,Clear,260,2013-10-16 19:55:00
3:15 PM,58.3,26.1,29,30.03,10.0,West,6.9,-,N/A,,Clear,260,2013-10-16 20:15:00
3:35 PM,58.8,25.2,28,30.02,10.0,WNW,4.6,-,N/A,,Clear,290,2013-10-16 20:35:00
3:55 PM,58.5,26.2,29,30.01,10.0,WNW,3.5,-,N/A,,Clear,290,2013-10-16 20:55:00
4:15 PM,58.6,27.1,30,30.00,10.0,WNW,6.9,-,N/A,,Clear,290,2013-10-16 21:15:00
4:35 PM,58.8,28.0,31,30.00,10.0,NNW,5.8,-,N/A,,Clear,330,2013-10-16 21:35:00
4:55 PM,58.5,27.7,31,29.99,10.0,WNW,5.8,-,N/A,,Clear,290,2013-10-16 21:55:00
5:15 PM,58.5,28.0,31,29.99,10.0,NW,6.9,-,N/A,,Clear,310,2013-10-16 22:15:00
5:35 PM,58.1,28.8,33,29.99,10.0,NW,5.8,-,N/A,,Clear,320,2013-10-16 22:35:00
5:55 PM,57.4,27.1,31,29.99,10.0,WNW,6.9,-,N/A,,Clear,300,2013-10-16 22:55:00
6:15 PM,56.7,29.1,35,29.99,10.0,WNW,3.5,-,N/A,,Clear,290,2013-10-16 23:15:00
6:35 PM,54.7,31.5,41,29.99,10.0,Calm,Calm,-,N/A,,Clear,0,2013-10-16 23:35:00
6:55 PM,49.8,36.1,59,29.98,10.0,Calm,Calm,-,N/A,,Clear,0,2013-10-16 23:55:00
7:15 PM,47.1,35.2,63,29.99,10.0,Calm,Calm,-,N/A,,Clear,0,2013-10-17 00:15:00
7:35 PM,45.9,35.8,68,29.99,10.0,Calm,Calm,-,N/A,,Clear,0,2013-10-17 00:35:00
7:55 PM,44.8,35.1,69,29.99,10.0,SSW,3.5,-,N/A,,Clear,210,2013-10-17 00:55:00
8:15 PM,46.6,34.3,62,29.99,10.0,Calm,Calm,-,N/A,,Clear,0,2013-10-17 01:15:00
8:35 PM,43.7,36.9,77,29.99,10.0,Calm,Calm,-,N/A,,Clear,0,2013-10-17 01:35:00
8:55 PM,44.4,35.6,71,29.99,10.0,Calm,Calm,-,N/A,,Clear,0,2013-10-17 01:55:00
9:15 PM,42.6,35.6,76,29.99,10.0,Calm,Calm,-,N/A,,Clear,0,2013-10-17 02:15:00
9:35 PM,42.4,35.6,77,29.99,10.0,Calm,Calm,-,N/A,,Clear,0,2013-10-17 02:35:00
9:55 PM,41.9,35.2,77,29.99,10.0,Calm,Calm,-,N/A,,Clear,0,2013-10-17 02:55:00
10:15 PM,40.1,35.8,85,30.00,10.0,Calm,Calm,-,N/A,,Clear,0,2013-10-17 03:15:00
10:35 PM,40.1,35.6,84,30.00,10.0,Calm,Calm,-,N/A,,Clear,0,2013-10-17 03:35:00
10:55 PM,41.2,34.7,78,30.00,10.0,Calm,Calm,-,N/A,,Clear,0,2013-10-17 03:55:00
11:15 PM,40.8,35.1,80,30.00,10.0,Calm,Calm,-,N/A,,Scattered Clouds,0,2013-10-17 04:15:00
11:35 PM,41.9,35.4,78,29.99,10.0,Calm,Calm,-,N/A,,Clear,0,2013-10-17 04:35:00
11:55 PM,41.9,35.6,78,29.99,10.0,Calm,Calm,-,N/A,,Clear,0,2013-10-17 04:55:00